• In Hungary
  • List of Countries
  • For 7 days
  • Water Temperature
  • Satellite Maps
  • Weather Map
  • News
  • Weather Widgets
  • user-avatar
    Login

    Hourly Weather Carlisle

    Today, 13 December, Wednesday

    Time Temperature Precipitation Wind Pressure Humidity
    00:00 +2°C° 0 mm 5 mps 744 mmHg 90%
    01:00 +2°C° 0 mm 5 mps 744 mmHg 89%
    02:00 +2°C° 0 mm 5 mps 744 mmHg 89%
    03:00 +3°C° 0 mm 4 mps 744 mmHg 89%
    04:00 +3°C° 0.1 mm 4 mps 743 mmHg 90%
    05:00 +3°C° 0.1 mm 4 mps 743 mmHg 91%
    06:00 +2°C° 0 mm 5 mps 742 mmHg 94%
    07:00 +3°C° 0.4 mm 6 mps 741 mmHg 93%
    08:00 +3°C° 0.4 mm 6 mps 740 mmHg 93%
    09:00 +4°C° 0.4 mm 7 mps 739 mmHg 92%
    10:00 +3°C° 0.7 mm 7 mps 738 mmHg 91%
    11:00 +3°C° 0.7 mm 7 mps 738 mmHg 89%
    12:00 +3°C° 0.7 mm 6 mps 737 mmHg 88%
    13:00 +3°C° 0.3 mm 6 mps 737 mmHg 86%
    14:00 +2°C° 0.3 mm 6 mps 737 mmHg 83%
    15:00 +1°C° 0.3 mm 6 mps 736 mmHg 81%
    16:00 +1°C° 0.2 mm 6 mps 736 mmHg 81%
    17:00 0°C° 0.2 mm 5 mps 736 mmHg 82%
    18:00 0°C° 0.2 mm 5 mps 736 mmHg 83%
    19:00 -1°C° 0.2 mm 6 mps 736 mmHg 82%
    20:00 -1°C° 0.2 mm 6 mps 736 mmHg 81%
    21:00 -1°C° 0.2 mm 6 mps 736 mmHg 80%
    22:00 -1°C° 0.1 mm 6 mps 736 mmHg 80%
    23:00 -1°C° 0.1 mm 6 mps 736 mmHg 80%

    Tomorrow, 14 December, Thursday

    Time Temperature Precipitation Wind Pressure Humidity
    00:00 -1°C° 0.1 mm 6 mps 736 mmHg 80%
    01:00 -1°C° 0.1 mm 6 mps 736 mmHg 80%
    02:00 -1°C° 0.1 mm 6 mps 736 mmHg 81%
    03:00 -1°C° 0.1 mm 7 mps 736 mmHg 82%
    04:00 -1°C° 0.2 mm 6 mps 736 mmHg 82%
    05:00 +1°C° 0.2 mm 6 mps 736 mmHg 83%
    06:00 +1°C° 0.2 mm 6 mps 736 mmHg 84%
    07:00 +1°C° 0.1 mm 6 mps 735 mmHg 84%
    08:00 +1°C° 0.1 mm 6 mps 735 mmHg 84%
    09:00 +1°C° 0.1 mm 6 mps 735 mmHg 84%
    10:00 +1°C° 0 mm 6 mps 735 mmHg 83%
    11:00 +2°C° 0 mm 7 mps 735 mmHg 83%
    12:00 +2°C° 0 mm 7 mps 735 mmHg 82%
    13:00 +2°C° 0.1 mm 6 mps 735 mmHg 83%
    14:00 +2°C° 0.1 mm 6 mps 734 mmHg 85%
    15:00 +2°C° 0.1 mm 6 mps 734 mmHg 86%
    16:00 +1°C° 0.1 mm 5 mps 734 mmHg 87%
    17:00 +1°C° 0.1 mm 5 mps 734 mmHg 89%
    18:00 +1°C° 0.1 mm 4 mps 734 mmHg 91%
    19:00 +1°C° 0.1 mm 4 mps 734 mmHg 91%
    20:00 +1°C° 0.1 mm 4 mps 734 mmHg 90%
    21:00 +1°C° 0.1 mm 4 mps 735 mmHg 90%
    22:00 0°C° 0.1 mm 4 mps 736 mmHg 90%
    23:00 +1°C° 0.1 mm 3 mps 736 mmHg 90%

    Day after tomorrow, 15 December, Friday

    Time Temperature Precipitation Wind Pressure Humidity
    00:00 +1°C° 0.1 mm 3 mps 737 mmHg 90%
    01:00 0°C° 0 mm 4 mps 738 mmHg 90%
    02:00 +1°C° 0 mm 4 mps 740 mmHg 89%
    03:00 +1°C° 0 mm 5 mps 741 mmHg 89%
    04:00 +1°C° 0.1 mm 5 mps 742 mmHg 88%
    05:00 +1°C° 0.1 mm 6 mps 744 mmHg 87%
    06:00 +2°C° 0.1 mm 6 mps 745 mmHg 86%
    07:00 +1°C° 0 mm 6 mps 746 mmHg 85%
    08:00 +1°C° 0 mm 5 mps 747 mmHg 84%
    09:00 0°C° 0 mm 5 mps 749 mmHg 84%
    10:00 0°C° 0 mm 5 mps 749 mmHg 83%
    11:00 +1°C° 0 mm 5 mps 750 mmHg 81%
    12:00 +1°C° 0 mm 4 mps 751 mmHg 80%
    13:00 +1°C° 0 mm 4 mps 751 mmHg 81%
    14:00 0°C° 0 mm 4 mps 752 mmHg 82%
    15:00 0°C° 0 mm 4 mps 752 mmHg 83%
    16:00 -1°C° 0 mm 4 mps 753 mmHg 83%
    17:00 -1°C° 0 mm 4 mps 753 mmHg 84%
    18:00 -2°C° 0 mm 4 mps 754 mmHg 85%
    19:00 -2°C° 0 mm 4 mps 754 mmHg 84%
    20:00 -2°C° 0 mm 4 mps 755 mmHg 84%
    21:00 -2°C° 0 mm 4 mps 755 mmHg 84%
    22:00 -2°C° 0 mm 4 mps 755 mmHg 84%
    23:00 -2°C° 0 mm 4 mps 755 mmHg 84%

    16 December, Saturday

    Time Temperature Precipitation Wind Pressure Humidity
    00:00 -2°C° 0 mm 4 mps 756 mmHg 84%
    01:00 -2°C° 0 mm 4 mps 756 mmHg 84%
    02:00 -2°C° 0 mm 4 mps 756 mmHg 84%
    03:00 -2°C° 0 mm 4 mps 757 mmHg 83%
    04:00 -1°C° 0 mm 3 mps 757 mmHg 83%
    05:00 -1°C° 0 mm 3 mps 757 mmHg 83%
    06:00 0°C° 0 mm 3 mps 757 mmHg 83%
    07:00 0°C° 0 mm 3 mps 758 mmHg 84%
    08:00 0°C° 0 mm 3 mps 758 mmHg 84%
    09:00 +1°C° 0 mm 3 mps 758 mmHg 85%
    10:00 +1°C° 0.2 mm 3 mps 758 mmHg 86%
    11:00 +2°C° 0.2 mm 3 mps 758 mmHg 87%
    12:00 +3°C° 0.2 mm 3 mps 758 mmHg 88%
    13:00 +3°C° 0.1 mm 3 mps 759 mmHg 88%
    14:00 +2°C° 0.1 mm 3 mps 759 mmHg 89%
    15:00 +2°C° 0.1 mm 3 mps 759 mmHg 90%
    16:00 +1°C° 0 mm 3 mps 760 mmHg 90%
    17:00 0°C° 0 mm 3 mps 761 mmHg 89%
    18:00 -1°C° 0 mm 3 mps 761 mmHg 89%
    19:00 -1°C° 0 mm 3 mps 762 mmHg 88%
    20:00 -1°C° 0 mm 2 mps 763 mmHg 87%
    21:00 -2°C° 0 mm 2 mps 764 mmHg 87%
    22:00 -2°C° 0 mm 2 mps 764 mmHg 87%
    23:00 -2°C° 0 mm 2 mps 764 mmHg 86%

    17 December, Sunday

    Time Temperature Precipitation Wind Pressure Humidity
    00:00 -2°C° 0 mm 2 mps 765 mmHg 86%
    01:00 0°C° 0 mm 1 mps 765 mmHg 85%
    02:00 0°C° 0 mm 1 mps 765 mmHg 85%
    03:00 0°C° 0 mm 1 mps 765 mmHg 84%
    04:00 0°C° 0 mm 1 mps 765 mmHg 83%
    05:00 0°C° 0 mm 1 mps 765 mmHg 83%
    06:00 0°C° 0 mm 1 mps 765 mmHg 82%
    07:00 -1°C° 0 mm 2 mps 765 mmHg 82%
    08:00 -1°C° 0 mm 2 mps 765 mmHg 82%
    09:00 -1°C° 0 mm 3 mps 765 mmHg 82%
    10:00 +1°C° 0 mm 3 mps 765 mmHg 83%
    11:00 +1°C° 0 mm 4 mps 764 mmHg 84%
    12:00 +2°C° 0 mm 5 mps 764 mmHg 84%
    13:00 +3°C° 0.5 mm 6 mps 763 mmHg 87%
    14:00 +3°C° 0.5 mm 6 mps 763 mmHg 90%
    15:00 +4°C° 0.5 mm 7 mps 762 mmHg 93%
    16:00 +5°C° 0.7 mm 7 mps 761 mmHg 93%
    17:00 +5°C° 0.7 mm 7 mps 761 mmHg 94%
    18:00 +6°C° 0.7 mm 7 mps 761 mmHg 94%
    19:00 +6°C° 0.3 mm 7 mps 760 mmHg 94%
    20:00 +7°C° 0.3 mm 6 mps 760 mmHg 94%
    21:00 +8°C° 0.3 mm 6 mps 760 mmHg 95%
    22:00 +8°C° 0.1 mm 6 mps 761 mmHg 95%
    23:00 +8°C° 0.1 mm 6 mps 761 mmHg 95%

    18 December, Monday

    Time Temperature Precipitation Wind Pressure Humidity
    00:00 +8°C° 0.1 mm 5 mps 761 mmHg 95%
    01:00 +7°C° 0 mm 5 mps 762 mmHg 95%
    02:00 +7°C° 0 mm 4 mps 762 mmHg 95%
    03:00 +7°C° 0 mm 4 mps 763 mmHg 95%
    04:00 +7°C° 0 mm 3 mps 763 mmHg 95%
    05:00 +5°C° 0 mm 3 mps 764 mmHg 95%
    06:00 +5°C° 0 mm 2 mps 764 mmHg 95%
    07:00 +5°C° 0 mm 2 mps 765 mmHg 95%
    08:00 +6°C° 0 mm 1 mps 765 mmHg 95%
    09:00 +5°C° 0 mm 1 mps 766 mmHg 95%
    10:00 +6°C° 0 mm 1 mps 766 mmHg 94%
    11:00 +7°C° 0 mm 1 mps 767 mmHg 94%
    12:00 +7°C° 0 mm 1 mps 767 mmHg 94%
    13:00 +7°C° 0 mm 1 mps 767 mmHg 94%
    14:00 +7°C° 0 mm 1 mps 767 mmHg 95%
    15:00 +7°C° 0 mm 1 mps 767 mmHg 95%
    16:00 +7°C° 0 mm 1 mps 768 mmHg 95%
    17:00 +7°C° 0 mm 1 mps 768 mmHg 96%
    18:00 +6°C° 0 mm 2 mps 768 mmHg 96%
    19:00 +6°C° 0 mm 2 mps 768 mmHg 96%
    20:00 +7°C° 0 mm 2 mps 769 mmHg 96%
    21:00 +7°C° 0 mm 2 mps 769 mmHg 96%
    22:00 +8°C° 0 mm 2 mps 769 mmHg 97%
    23:00 +8°C° 0 mm 2 mps 769 mmHg 97%
    Show more